Flag for Switzerland Weather past 2 weeks in Winterthur, Switzerland

Now
61 °F

Scattered clouds.


Feels Like: 61 °F
Forecast: 37 / 68 °F
Wind: 2 mph from North

Location: Zurich-Kloten

Current Time: May 27, 2015 at 4:44:54 PM

Latest Report: May 27, 2015 at 4:20 PM


Visibility: N/A

Pressure: 30.21 "Hg

Humidity: 39%

Dew point: 36 °F

Location of WinterthurLocation

Historic Weather in Winterthur — Graph

°F

Winterthur temperature yesterday

Maximum temperature yesterday: 55 °F (at 9:20 AM)
Minimum temperature yesterday: 50 °F (at 9:50 PM)
Average temperature yesterday: 53 °F

Past Weeks' High & Low Weather Summary

 TemperatureHumidityPressure
High82 °F (May 12, 3:50 PM)100% (May 15, 10:50 AM)30.33 "Hg (May 15, 10:50 AM)
Low41 °F (May 27, 6:20 AM)26% (May 12, 6:20 PM)29.77 "Hg (May 18, 5:50 PM)
Average56 °F75%30.07 "Hg
* Reported May 12 3:20 PM — May 27 3:50 PM, Winterthur, Weather by CustomWeather, © 2015

Note: Actual official high and low records may vary slightly from our data, if they occured in-between our weather recording intervals... More about our weather records

Advertising

Winterthur weather history for previous 24 hours

 ConditionsComfort  
Time TempWeatherWind HumidityBarometerVisibility
3:50 PM
Wed, May 27
59 °FScattered clouds.3 mph45%30.21 "HgN/A
3:20 PM61 °FScattered clouds.3 mph39%30.21 "HgN/A
2:50 PM59 °FScattered clouds.2 mph45%30.21 "HgN/A
2:20 PM59 °FScattered clouds.5 mph48%30.24 "HgN/A
1:50 PM59 °FScattered clouds.5 mph45%30.24 "HgN/A
1:20 PM57 °FPartly sunny.2 mph48%30.24 "HgN/A
12:50 PM55 °FPartly sunny.3 mph51%30.24 "HgN/A
12:20 PM55 °FPartly sunny.2 mph59%30.24 "HgN/A
11:50 AM55 °FPartly sunny.3 mph55%30.24 "HgN/A
11:20 AM54 °FPartly sunny.3 mph58%30.24 "HgN/A
10:50 AM54 °FPartly sunny.2 mph58%30.24 "HgN/A
10:20 AM54 °FScattered clouds.2 mph63%30.24 "HgN/A
9:50 AM54 °FScattered clouds.3 mph63%30.24 "HgN/A
9:20 AM52 °FPassing clouds.3 mph67%30.24 "HgN/A
8:50 AM52 °FPassing clouds.2 mph67%30.24 "HgN/A
8:20 AM50 °FPassing clouds.No wind76%30.24 "HgN/A
7:50 AM48 °FPassing clouds.No wind82%30.24 "HgN/A
7:20 AM46 °FScattered clouds.1 mph87%30.24 "HgN/A
6:50 AM43 °FScattered clouds.No wind93%30.24 "HgN/A
6:20 AM41 °FPassing clouds.1 mph100%30.24 "HgN/A
5:20 AM45 °FPassing clouds.No wind100%30.21 "HgN/A
4:50 AM46 °FPassing clouds.1 mph93%30.21 "HgN/A
4:20 AM46 °FPassing clouds.No wind93%30.21 "HgN/A
3:50 AM46 °FPassing clouds.2 mph93%30.21 "HgN/A
3:20 AM46 °FPassing clouds.1 mph93%30.21 "HgN/A
2:50 AM46 °FPassing clouds.2 mph87%30.21 "HgN/A
1:50 AM48 °FPartly cloudy.5 mph87%30.21 "HgN/A
1:20 AM48 °FPassing clouds.5 mph94%30.21 "HgN/A
12:50 AM50 °FPartly cloudy.2 mph88%30.21 "HgN/A
12:20 AM50 °FPartly cloudy.3 mph82%30.18 "HgN/A
11:20 PM
Tue, May 26
50 °FPassing clouds.No wind94%30.18 "HgN/A
10:50 PM50 °FPartly cloudy.No wind94%30.18 "Hg6 mi
10:20 PM50 °FPartly cloudy.3 mph94%30.18 "HgN/A
9:50 PM50 °FBroken clouds.3 mph94%30.18 "HgN/A
9:20 PM52 °FScattered showers. Broken clouds.3 mph82%30.15 "HgN/A
8:50 PM52 °FScattered showers. Broken clouds.7 mph82%30.15 "HgN/A
8:20 PM52 °FScattered showers. Partly sunny.6 mph94%30.15 "HgN/A
7:50 PM54 °FScattered showers. Broken clouds.3 mph94%30.12 "HgN/A
7:20 PM54 °FSprinkles. Broken clouds.2 mph88%30.12 "HgN/A
6:50 PM54 °FSprinkles. Broken clouds.6 mph88%30.12 "HgN/A
6:20 PM54 °FScattered showers. Broken clouds.3 mph88%30.09 "HgN/A
5:50 PM54 °FBroken clouds.No wind77%30.09 "HgN/A
5:20 PM54 °FBroken clouds.1 mph77%30.09 "HgN/A
4:50 PM54 °FBroken clouds.1 mph82%30.09 "HgN/A
4:20 PM54 °FPartly sunny.1 mph77%30.09 "HgN/A
Weather by CustomWeather, © 2015

See weather overviewHow to use our weather pages